When you browse on this site, cookies collect data to enhance your experience and personalize the content and advertising you see.
Visit our Privacy Policy to learn more. By continuing to use the site, you agree to this use of cookies and data.
  • In Deutschland
  • Länderverzeichnis
  • Für 7 Tage
  • Wassertemperatur
  • Wetterkarte
  • Widgets
  • user-avatar
    Anmelden

    Stündliche Wetter Münster

    Heute, 20 August, Dienstag

    Zeit Temperatur Niederschläge Wind Luftdruck Luftfeuchtigkeit
    00:00 +15°C° 0 mm 2 m/S 759 mmHg 79%
    01:00 +14°C° 0 mm 3 m/S 759 mmHg 80%
    02:00 +13°C° 0 mm 3 m/S 759 mmHg 80%
    03:00 +13°C° 0 mm 3 m/S 759 mmHg 80%
    04:00 +12°C° 0 mm 3 m/S 759 mmHg 79%
    05:00 +13°C° 0 mm 3 m/S 760 mmHg 79%
    06:00 +13°C° 0 mm 3 m/S 760 mmHg 79%
    07:00 +14°C° 0 mm 3 m/S 760 mmHg 79%
    08:00 +15°C° 0 mm 4 m/S 760 mmHg 74%
    09:00 +18°C° 0 mm 4 m/S 760 mmHg 69%
    10:00 +19°C° 0 mm 4 m/S 761 mmHg 64%
    11:00 +20°C° 0 mm 4 m/S 761 mmHg 59%
    12:00 +21°C° 0 mm 3 m/S 761 mmHg 55%
    13:00 +22°C° 0 mm 3 m/S 761 mmHg 51%
    14:00 +22°C° 0 mm 3 m/S 761 mmHg 50%
    15:00 +22°C° 0 mm 4 m/S 761 mmHg 49%
    16:00 +22°C° 0 mm 4 m/S 761 mmHg 49%
    17:00 +21°C° 0.1 mm 3 m/S 761 mmHg 55%
    18:00 +20°C° 0.1 mm 3 m/S 761 mmHg 61%
    19:00 +19°C° 0.1 mm 2 m/S 762 mmHg 67%
    20:00 +17°C° 0 mm 2 m/S 762 mmHg 71%
    21:00 +16°C° 0 mm 2 m/S 763 mmHg 75%
    22:00 +15°C° 0 mm 2 m/S 763 mmHg 79%
    23:00 +15°C° 0 mm 1 m/S 763 mmHg 82%

    Morgen, 21 August, Mittwoch

    Zeit Temperatur Niederschläge Wind Luftdruck Luftfeuchtigkeit
    00:00 +14°C° 0 mm 1 m/S 764 mmHg 85%
    01:00 +13°C° 0 mm 1 m/S 764 mmHg 88%
    02:00 +13°C° 0 mm 1 m/S 764 mmHg 89%
    03:00 +13°C° 0 mm 1 m/S 764 mmHg 89%
    04:00 +12°C° 0 mm 1 m/S 764 mmHg 90%
    05:00 +13°C° 0 mm 1 m/S 764 mmHg 88%
    06:00 +13°C° 0 mm 1 m/S 765 mmHg 85%
    07:00 +14°C° 0 mm 1 m/S 765 mmHg 83%
    08:00 +16°C° 0 mm 1 m/S 765 mmHg 74%
    09:00 +18°C° 0 mm 1 m/S 765 mmHg 65%
    10:00 +19°C° 0 mm 2 m/S 765 mmHg 56%
    11:00 +20°C° 0 mm 2 m/S 765 mmHg 51%
    12:00 +21°C° 0 mm 2 m/S 765 mmHg 46%
    13:00 +23°C° 0 mm 2 m/S 764 mmHg 41%
    14:00 +23°C° 0 mm 2 m/S 764 mmHg 41%
    15:00 +23°C° 0 mm 1 m/S 764 mmHg 40%
    16:00 +23°C° 0 mm 1 m/S 764 mmHg 40%
    17:00 +22°C° 0 mm 1 m/S 764 mmHg 45%
    18:00 +21°C° 0 mm 1 m/S 764 mmHg 49%
    19:00 +20°C° 0 mm 1 m/S 764 mmHg 54%
    20:00 +19°C° 0 mm 1 m/S 764 mmHg 56%
    21:00 +18°C° 0 mm 1 m/S 764 mmHg 58%
    22:00 +16°C° 0 mm 1 m/S 764 mmHg 60%
    23:00 +15°C° 0 mm 1 m/S 764 mmHg 61%

    übermorgen, 22 August, Donnerstag

    Zeit Temperatur Niederschläge Wind Luftdruck Luftfeuchtigkeit
    00:00 +15°C° 0 mm 1 m/S 764 mmHg 61%
    01:00 +15°C° 0 mm 1 m/S 764 mmHg 62%
    02:00 +14°C° 0 mm 1 m/S 764 mmHg 63%
    03:00 +14°C° 0 mm 1 m/S 763 mmHg 65%
    04:00 +14°C° 0 mm 1 m/S 763 mmHg 66%
    05:00 +14°C° 0 mm 1 m/S 763 mmHg 67%
    06:00 +15°C° 0 mm 1 m/S 763 mmHg 67%
    07:00 +16°C° 0 mm 1 m/S 763 mmHg 68%
    08:00 +18°C° 0 mm 2 m/S 763 mmHg 62%
    09:00 +20°C° 0 mm 2 m/S 763 mmHg 56%
    10:00 +22°C° 0 mm 3 m/S 763 mmHg 50%
    11:00 +24°C° 0 mm 3 m/S 763 mmHg 47%
    12:00 +25°C° 0 mm 3 m/S 763 mmHg 44%
    13:00 +26°C° 0 mm 4 m/S 763 mmHg 41%
    14:00 +26°C° 0 mm 4 m/S 763 mmHg 41%
    15:00 +26°C° 0 mm 4 m/S 763 mmHg 41%
    16:00 +26°C° 0 mm 4 m/S 763 mmHg 41%
    17:00 +24°C° 0 mm 3 m/S 763 mmHg 46%
    18:00 +22°C° 0 mm 3 m/S 763 mmHg 52%
    19:00 +21°C° 0 mm 2 m/S 763 mmHg 57%
    20:00 +20°C° 0 mm 2 m/S 763 mmHg 60%
    21:00 +19°C° 0 mm 1 m/S 764 mmHg 64%
    22:00 +18°C° 0 mm 1 m/S 764 mmHg 67%
    23:00 +18°C° 0 mm 1 m/S 764 mmHg 69%

    23 August, Freitag

    Zeit Temperatur Niederschläge Wind Luftdruck Luftfeuchtigkeit
    00:00 +16°C° 0 mm 1 m/S 764 mmHg 70%
    01:00 +16°C° 0 mm 1 m/S 764 mmHg 72%
    02:00 +14°C° 0 mm 0 m/S 764 mmHg 73%
    03:00 +14°C° 0 mm 0 m/S 764 mmHg 74%
    04:00 +14°C° 0 mm 0 m/S 764 mmHg 75%
    05:00 +15°C° 0 mm 0 m/S 764 mmHg 73%
    06:00 +16°C° 0 mm 1 m/S 764 mmHg 71%
    07:00 +18°C° 0 mm 1 m/S 764 mmHg 69%
    08:00 +20°C° 0 mm 1 m/S 764 mmHg 61%
    09:00 +22°C° 0 mm 1 m/S 764 mmHg 54%
    10:00 +24°C° 0 mm 1 m/S 764 mmHg 47%
    11:00 +25°C° 0 mm 1 m/S 764 mmHg 44%
    12:00 +26°C° 0 mm 1 m/S 764 mmHg 41%
    13:00 +28°C° 0 mm 1 m/S 763 mmHg 39%
    14:00 +28°C° 0 mm 2 m/S 763 mmHg 38%
    15:00 +28°C° 0 mm 2 m/S 763 mmHg 37%
    16:00 +29°C° 0 mm 2 m/S 762 mmHg 36%
    17:00 +27°C° 0 mm 2 m/S 762 mmHg 42%
    18:00 +26°C° 0 mm 3 m/S 762 mmHg 48%
    19:00 +24°C° 0 mm 3 m/S 762 mmHg 54%
    20:00 +22°C° 0 mm 3 m/S 762 mmHg 56%
    21:00 +21°C° 0 mm 3 m/S 762 mmHg 58%
    22:00 +20°C° 0 mm 3 m/S 762 mmHg 59%
    23:00 +19°C° 0 mm 3 m/S 762 mmHg 61%

    24 August, Samstag

    Zeit Temperatur Niederschläge Wind Luftdruck Luftfeuchtigkeit
    00:00 +19°C° 0 mm 3 m/S 762 mmHg 63%
    01:00 +18°C° 0 mm 2 m/S 762 mmHg 64%
    02:00 +18°C° 0 mm 2 m/S 761 mmHg 65%
    03:00 +18°C° 0 mm 2 m/S 761 mmHg 65%
    04:00 +17°C° 0 mm 3 m/S 760 mmHg 66%
    05:00 +18°C° 0 mm 2 m/S 760 mmHg 67%
    06:00 +18°C° 0 mm 2 m/S 760 mmHg 67%
    07:00 +18°C° 0 mm 2 m/S 760 mmHg 68%
    08:00 +20°C° 0 mm 2 m/S 760 mmHg 62%
    09:00 +23°C° 0 mm 2 m/S 760 mmHg 57%
    10:00 +26°C° 0 mm 2 m/S 760 mmHg 51%
    11:00 +27°C° 0 mm 2 m/S 760 mmHg 46%
    12:00 +28°C° 0 mm 2 m/S 759 mmHg 42%
    13:00 +29°C° 0 mm 2 m/S 759 mmHg 37%
    14:00 +30°C° 0 mm 2 m/S 758 mmHg 36%
    15:00 +30°C° 0 mm 2 m/S 758 mmHg 35%
    16:00 +30°C° 0 mm 2 m/S 758 mmHg 34%
    17:00 +29°C° 0 mm 2 m/S 758 mmHg 39%
    18:00 +27°C° 0 mm 2 m/S 757 mmHg 45%
    19:00 +26°C° 0 mm 2 m/S 757 mmHg 51%
    20:00 +25°C° 0 mm 3 m/S 757 mmHg 54%
    21:00 +22°C° 0 mm 3 m/S 757 mmHg 57%
    22:00 +21°C° 0 mm 3 m/S 758 mmHg 61%
    23:00 +21°C° 0 mm 2 m/S 758 mmHg 61%

    25 August, Sonntag

    Zeit Temperatur Niederschläge Wind Luftdruck Luftfeuchtigkeit
    00:00 +20°C° 0 mm 2 m/S 757 mmHg 62%
    01:00 +20°C° 0 mm 2 m/S 757 mmHg 63%
    02:00 +20°C° 0 mm 2 m/S 757 mmHg 64%
    03:00 +19°C° 0 mm 2 m/S 757 mmHg 65%
    04:00 +20°C° 0 mm 1 m/S 757 mmHg 66%
    05:00 +20°C° 0 mm 1 m/S 757 mmHg 66%
    06:00 +21°C° 0 mm 1 m/S 757 mmHg 66%
    07:00 +21°C° 0 mm 1 m/S 757 mmHg 66%
    08:00 +23°C° 0 mm 1 m/S 757 mmHg 60%
    09:00 +25°C° 0 mm 1 m/S 757 mmHg 54%
    10:00 +27°C° 0 mm 1 m/S 757 mmHg 48%
    11:00 +29°C° 0 mm 1 m/S 757 mmHg 45%
    12:00 +30°C° 0 mm 1 m/S 756 mmHg 41%
    13:00 +29°C° 0 mm 0 m/S 756 mmHg 37%
    14:00 +31°C° 0 mm 1 m/S 756 mmHg 36%
    15:00 +31°C° 0 mm 1 m/S 756 mmHg 35%
    16:00 +31°C° 0 mm 1 m/S 756 mmHg 34%
    17:00 +30°C° 0 mm 2 m/S 756 mmHg 40%
    18:00 +28°C° 0 mm 2 m/S 756 mmHg 47%
    19:00 +27°C° 0 mm 2 m/S 756 mmHg 53%
    20:00 +26°C° 0 mm 2 m/S 756 mmHg 57%
    21:00 +24°C° 0 mm 2 m/S 756 mmHg 61%
    22:00 +23°C° 0 mm 2 m/S 756 mmHg 66%
    23:00 +23°C° 0 mm 1 m/S 756 mmHg 67%
    Mehr zeigen